Location: Recife
(8.0585°S, 34.8848°W)
Time: 21:06:43
(UTC-03:00)

Vanguard 2 - Pass Details

Date: 14 April 2026
Orbit: 553 x 2895 km, 32.9° (Epoch: 17 May)

Event Time Altitude Azimuth Distance (km) Brightness Sun altitude
Exits shadow 01:43:13 23° 165° (SSE) 4,138 11.1 -54.6°
Drops below altitude 10° 01:50:02 10° 135° (SE) 4,641 11.7 -52.9°
Sets 01:54:14 0° 122° (ESE) 5,280 12.2 -51.9°
